This is the latest recevied weather packets stored in our database for station/object F1AGU-13. If no packets are shown the sender has not sent any weather packets the latest 10 day(s).
| Time | Temp. | Humidity | Pressure | Rain* | Wind** | Luminosity | Snow |
|---|---|---|---|---|---|---|---|
| 1777959917 | 8.33° C | 96% | 1009.6 hPa | 0.25 mm | - | - | - |
| 1777959317 | 8.33° C | 95% | 1009.5 hPa | 0.25 mm | - | - | - |
| 1777958717 | 8.33° C | 94% | 1009.6 hPa | 0.25 mm | - | - | - |
| 1777958117 | 7.78° C | 95% | 1009.6 hPa | 0.51 mm | - | - | - |
| 1777957517 | 7.78° C | 95% | 1009.7 hPa | 0.76 mm | - | - | - |
| 1777956917 | 7.78° C | 96% | 1009.8 hPa | 0.76 mm | - | - | - |
| 1777956315 | 7.78° C | 96% | 1009.9 hPa | 1.27 mm | - | - | - |
| 1777955717 | 7.78° C | 96% | 1010.3 hPa | 2.03 mm | - | - | - |
| 1777955117 | 7.78° C | 97% | 1010.5 hPa | 2.29 mm | - | - | - |
| 1777954517 | 7.78° C | 97% | 1010.7 hPa | 2.29 mm | - | - | - |
| 1777953917 | 7.78° C | 97% | 1010.6 hPa | 2.29 mm | - | - | - |
| 1777953317 | 7.78° C | 97% | 1010.7 hPa | 2.29 mm | - | - | - |
| 1777952717 | 7.78° C | 97% | 1011.3 hPa | 2.79 mm | - | - | - |
| 1777952117 | 7.78° C | 97% | 1011.4 hPa | 3.05 mm | - | - | - |
| 1777951517 | 7.78° C | 97% | 1011.3 hPa | 3.3 mm | - | - | - |
| 1777950917 | 7.78° C | 97% | 1011.3 hPa | 4.32 mm | - | - | - |
| 1777950317 | 7.78° C | 97% | 1011.2 hPa | 4.32 mm | - | - | - |
| 1777949717 | 7.78° C | 97% | 1011.2 hPa | 5.08 mm | - | - | - |
| 1777949117 | 7.78° C | 97% | 1011.3 hPa | 4.83 mm | - | - | - |
| 1777948517 | 7.78° C | 97% | 1011.6 hPa | 4.32 mm | - | - | - |
| 1777947917 | 7.78° C | 97% | 1011.6 hPa | 4.32 mm | - | - | - |
| 1777947317 | 7.78° C | 97% | 1011.6 hPa | 3.81 mm | - | - | - |
| 1777946717 | 7.78° C | 97% | 1011.6 hPa | 3.81 mm | - | - | - |
| 1777946117 | 7.78° C | 97% | 1011.5 hPa | 3.56 mm | - | - | - |
| 1777945517 | 7.78° C | 96% | 1011.5 hPa | 3.3 mm | - | - | - |
* Rain latest hour (hover to see other rain measurements)
** Current wind speed in m/s (hover to see current wind gust speed)